Theta_e
306 305 303 302 302 302 303 304 305 307 310 312 315 318 320 321 323 323 323 322 321 320 318 312 309 308 307 305 301 299 298 298 298 296 296 296 297 296 296 296 296 295 296
305 304 303 302 301 301 301 302 302 304 306 308 312 314 315 317 319 320 320 319 319 318 315 312 307 306 305 302 300 298 298 298 297 296 296 293 294 294 295 295 295 294 293
304 303 302 301 300 300 300 299 301 302 303 306 308 310 311 312 312 312 315 315 316 315 313 312 308 305 303 301 299 298 298 298 296 297 298 295 295 294 294 295 294 294 293
303 302 301 300 300 299 299 298 298 300 301 303 304 305 306 306 306 307 308 310 312 313 312 310 308 305 303 301 300 298 298 297 297 297 299 300 299 294 292 294 293 293 292
301 300 300 299 299 298 298 298 298 297 298 299 300 301 301 302 303 304 304 303 304 306 308 308 307 305 303 301 299 298 298 297 297 296 298 298 298 299 293 291 292 293 291
300 300 299 298 297 297 296 295 295 296 296 296 297 297 298 299 300 300 300 301 302 302 303 302 304 305 304 302 300 299 298 297 297 297 296 298 297 295 295 293 291 291 291
299 297 297 297 297 296 296 295 293 293 294 295 295 295 295 296 296 296 297 298 298 299 301 301 300 301 303 302 301 299 298 297 297 297 297 296 297 297 298 297 292 291 292
299 297 297 297 296 295 294 293 292 291 292 292 293 292 293 293 294 294 294 295 295 296 296 297 299 298 299 300 300 299 298 297 297 297 297 297 296 296 297 297 294 290 289
299 298 296 296 295 294 293 292 291 290 290 290 291 290 290 289 289 290 290 292 292 293 293 294 295 296 297 297 298 298 298 297 297 296 296 297 297 296 296 297 297 295 288
297 297 295 294 293 292 292 291 290 288 288 289 289 288 287 287 286 286 286 286 287 290 292 292 292 293 294 295 295 296 296 296 296 296 295 296 296 297 296 296 296 297 295
294 295 295 292 291 290 290 289 289 288 286 286 287 287 286 285 284 284 284 284 285 285 286 289 291 291 291 292 293 294 294 295 295 295 294 294 295 295 295 295 296 296 296
293 292 293 292 290 289 289 288 287 287 286 285 286 286 285 285 285 284 283 284 284 284 284 284 285 287 290 290 290 291 292 293 293 293 293 293 293 294 294 294 294 294 295
292 291 291 291 290 289 288 288 287 287 286 286 285 285 284 284 284 283 283 283 283 284 284 284 284 284 284 286 289 289 290 291 291 292 292 292 292 292 292 293 293 293 293
292 291 290 290 290 290 289 288 287 287 287 286 285 285 284 283 283 282 282 282 282 282 283 283 283 283 283 284 284 285 288 289 289 290 290 291 291 291 291 291 291 291 291
292 290 289 289 290 290 290 289 288 287 287 286 285 284 284 284 283 283 282 282 281 281 281 281 282 282 282 283 284 285 286 287 288 288 288 289 289 290 290 290 290 289 289
290 291 289 289 289 289 289 289 288 287 287 286 285 285 284 284 283 282 282 281 281 280 280 280 280 280 281 282 284 285 286 286 287 287 287 287 287 288 289 290 290 290 289
290 289 289 289 289 289 289 289 288 287 286 286 285 284 283 283 282 282 281 281 279 279 279 279 279 279 280 281 283 284 285 285 286 286 286 287 287 287 287 287 288 289 290
289 289 289 289 290 289 288 287 286 285 284 284 283 283 283 282 282 281 281 280 279 278 278 278 278 278 278 280 281 282 283 284 285 285 286 286 287 287 286 286 286 287 288
289 289 289 289 289 288 286 284 283 282 282 282 281 281 280 280 279 279 279 279 278 277 277 276 276 276 277 277 278 280 281 282 283 284 285 285 286 286 287 287 286 286 286
289 289 289 288 287 284 283 281 280 280 279 279 278 277 277 276 276 276 276 276 276 276 275 275 275 274 274 275 276 277 278 280 282 283 283 285 285 286 287 287 287 286 286
289 288 286 285 283 281 279 278 277 276 276 275 273 272 271 271 271 271 271 271 271 272 272 272 272 272 272 272 273 275 277 278 280 281 282 283 285 286 287 287 287 287 286
285 284 283 281 279 277 275 274 274 273 271 270 269 268 267 266 266 267 267 267 267 268 268 269 269 270 271 271 272 274 275 277 279 281 282 283 284 285 286 287 288 288 287
282 280 278 277 276 274 273 272 271 269 268 267 266 265 264 264 264 264 264 265 265 265 266 267 267 268 268 269 270 272 273 275 277 279 282 283 284 285 285 286 287 288 288
278 277 275 273 272 272 270 269 268 267 266 265 264 264 264 263 264 264 264 264 264 264 265 265 265 265 266 266 267 268 269 270 274 278 281 282 283 283 284 285 287 288 287
275 274 272 271 270 269 268 267 266 265 264 263 263 263 263 263 263 263 264 264 265 265 266 267 268 268 269 269 269 270 271 271 272 274 278 280 280 281 282 284 286 287 286
272 270 269 269 268 267 266 266 265 264 263 263 263 263 262 262 262 263 263 264 265 266 267 268 269 269 270 270 271 271 272 273 273 275 276 277 279 280 282 283 285 284 285
Wind_Speed
17 25 25 25 26 31 29 27 21 14 3 1 7 10 10 10 15 14 17 19 21 26 30 27 27 31 35 35 33 29 28 24 22 18 8 8 10 11 11 12 13 14 14
15 18 20 23 25 26 29 30 27 20 16 5 5 2 1 5 8 14 15 15 18 21 27 29 26 30 33 33 33 33 30 23 31 12 9 2 5 13 16 17 16 15 15
10 9 17 23 25 30 30 30 27 25 20 13 7 3 1 2 3 2 7 11 15 15 20 26 28 27 32 34 34 37 36 28 35 24 10 3 5 4 13 19 19 18 18
9 9 15 20 23 27 28 29 27 25 20 16 15 12 11 8 7 4 5 8 11 19 18 23 27 28 30 35 37 39 40 33 29 31 28 9 8 4 3 14 20 20 21
8 9 13 18 22 26 27 26 28 29 24 20 15 13 12 12 10 10 5 5 8 13 19 19 23 28 28 32 33 37 40 38 35 32 26 26 15 9 4 4 10 22 24
8 10 16 19 24 25 26 27 26 27 26 26 22 17 13 12 12 12 12 10 9 10 13 16 21 23 28 29 32 33 38 41 39 38 34 28 15 15 6 3 3 10 23
7 8 9 16 20 21 21 22 24 25 23 21 21 23 18 19 16 14 13 12 12 11 11 14 16 20 26 28 28 33 36 41 42 37 41 39 37 21 28 8 5 4 9
7 7 11 14 15 15 16 17 19 21 22 22 21 19 22 25 23 21 17 14 13 12 11 11 13 16 21 25 27 29 34 38 42 44 37 41 43 40 30 25 12 2 3
6 6 10 11 10 10 12 13 15 18 19 18 18 22 26 24 21 21 21 20 19 17 15 14 14 14 17 22 25 28 30 34 37 42 43 39 38 42 41 35 30 17 5
6 6 8 8 7 8 9 11 11 14 15 16 18 20 22 21 21 24 23 23 22 21 20 17 15 15 15 18 22 27 30 30 34 35 40 44 41 39 41 42 37 35 23
2 2 5 6 6 7 9 9 10 13 16 17 16 16 17 18 22 23 22 22 22 22 21 20 19 17 16 16 20 24 27 32 33 34 36 38 40 43 41 42 44 39 30
3 3 5 6 7 7 9 9 10 12 14 14 13 14 16 19 20 23 23 23 23 23 23 23 21 19 16 16 20 22 23 29 34 36 36 38 37 40 41 40 43 40 42
5 4 3 3 4 7 10 12 13 13 15 16 17 16 16 16 18 20 20 22 24 24 23 23 22 22 22 19 18 21 22 27 32 35 37 38 38 40 38 38 40 42 41
4 1 2 4 6 7 9 12 15 15 18 19 22 24 24 24 24 25 25 26 25 24 24 26 26 25 23 20 21 22 22 25 31 34 35 37 39 40 37 39 41 37 36
6 6 2 2 7 8 7 10 14 16 17 19 23 27 28 29 30 32 32 32 31 30 29 29 29 30 29 27 23 24 24 26 28 30 33 37 39 40 40 38 35 34 34
5 3 5 5 8 9 11 14 16 18 18 22 26 30 31 34 36 35 34 34 35 35 32 33 32 34 33 31 24 25 28 29 31 31 30 31 34 37 40 43 41 38 37
4 5 5 8 8 5 6 9 13 14 16 22 28 30 29 31 33 35 38 39 34 35 35 35 33 32 34 30 30 28 30 32 32 32 32 31 31 31 34 38 44 44 45
3 4 6 11 14 5 7 10 12 15 20 24 26 28 28 30 33 34 35 37 35 36 35 35 35 35 38 32 32 33 33 34 35 35 36 34 34 33 32 31 35 40 43
5 7 8 8 6 7 8 12 14 14 18 23 26 26 27 30 33 33 34 35 34 35 36 37 38 36 40 39 36 34 34 35 37 36 37 37 37 37 33 33 34 37 42
9 9 10 5 7 8 10 16 18 18 20 22 23 25 27 31 32 33 34 35 34 37 37 40 39 40 44 46 45 41 36 36 37 38 36 37 41 40 36 36 36 34 42
5 3 6 7 8 12 17 18 17 17 19 24 28 29 28 28 31 34 34 35 37 38 40 41 44 43 43 47 47 45 41 38 37 37 36 34 34 37 39 41 39 41 35
5 6 9 8 9 14 20 17 17 19 24 26 26 28 30 30 29 31 33 33 33 34 37 38 40 39 39 40 43 43 44 44 42 41 38 36 34 33 34 35 42 44 38
4 6 10 16 16 18 19 20 24 27 29 29 28 28 28 27 27 29 30 30 28 29 30 30 32 34 33 36 39 41 42 43 45 43 41 39 37 35 35 37 39 39 37
4 7 12 15 18 20 22 23 29 29 29 29 28 28 28 29 27 27 27 28 28 28 28 29 31 34 35 35 34 35 35 39 35 32 40 35 32 32 35 35 35 38 35
4 8 12 14 17 23 26 28 29 29 28 27 27 27 26 28 30 29 28 29 31 31 34 34 35 33 32 32 39 41 37 33 38 39 35 27 28 26 27 31 32 33 32
7 11 13 16 22 25 27 29 27 27 28 26 26 27 30 29 29 30 31 31 34 36 39 41 43 42 44 47 45 44 43 41 41 40 35 29 25 23 22 22 24 27 29
Wind_Direction
72 53 42 33 30 27 32 30 30 23 32 197 226 230 237 234 230 229 230 234 228 217 216 216 213 212 214 214 209 204 198 189 186 158 165 191 210 218 215 218 224 219 216
56 50 45 37 35 34 32 32 34 36 43 31 56 111 75 218 235 226 232 237 241 225 217 219 217 216 215 216 211 202 189 187 188 169 136 176 235 227 212 216 219 227 220
56 45 40 38 35 33 35 36 36 36 33 32 41 64 265 10 338 342 247 239 240 237 228 224 223 222 221 221 216 209 201 189 192 199 162 145 211 150 210 216 213 220 223
62 50 38 37 38 40 43 41 38 39 40 46 41 32 44 44 10 320 256 254 256 246 239 232 231 229 229 224 224 217 213 201 194 202 216 219 159 161 169 208 217 221 226
71 57 52 49 41 38 43 45 46 41 36 39 45 42 44 39 21 21 354 317 274 262 257 246 244 234 239 233 229 222 217 212 210 203 211 220 211 195 143 179 198 216 224
67 66 59 48 42 40 37 38 38 43 38 35 36 33 35 50 44 18 3 337 305 293 272 276 256 253 246 243 233 233 226 222 219 224 215 209 194 207 180 136 178 201 210
62 56 48 48 43 35 35 36 35 36 38 38 32 35 35 43 37 28 10 358 351 338 289 280 284 263 252 253 247 238 234 228 224 225 226 225 223 219 212 166 163 154 204
69 64 56 53 52 45 37 38 41 36 32 29 31 30 37 39 36 33 21 5 346 333 323 329 291 279 267 256 255 251 243 238 234 231 231 231 232 228 226 211 167 126 185
69 68 72 63 55 52 55 45 39 41 40 33 28 23 31 32 30 33 25 15 8 353 331 308 299 297 284 266 259 256 253 248 243 240 236 236 236 236 232 233 221 196 172
45 61 69 65 69 62 58 52 52 43 40 41 39 32 28 23 22 28 21 17 12 5 358 347 329 306 291 281 273 263 257 255 249 246 244 241 239 238 236 232 233 224 217
84 86 109 89 64 56 52 44 42 35 25 23 28 29 24 19 21 20 11 9 8 5 3 357 348 334 317 295 282 275 265 259 256 251 248 247 245 242 239 235 235 229 220
28 17 57 75 51 26 35 34 24 27 18 13 8 17 11 8 6 3 358 357 357 358 355 354 352 344 334 318 299 285 275 265 260 258 254 249 246 245 242 240 236 230 228
174 187 151 116 68 30 14 8 6 2 359 356 354 353 353 352 344 340 340 340 343 342 343 340 341 342 339 330 310 292 283 275 268 265 262 258 251 246 240 236 232 231 230
197 248 320 23 5 18 3 355 350 352 344 341 342 338 339 335 333 328 328 328 331 329 327 327 325 327 326 324 319 310 297 283 275 269 264 261 257 248 242 238 235 229 226
212 215 171 319 307 307 310 317 322 328 325 323 330 331 330 329 329 328 326 322 323 323 318 315 314 314 315 313 310 306 299 292 287 280 271 265 262 258 250 241 236 228 222
349 275 176 230 260 267 277 282 289 299 304 307 314 318 320 322 321 320 318 316 316 316 313 308 306 306 304 305 297 290 290 289 286 281 275 269 264 260 257 251 244 235 222
315 320 252 235 247 258 298 299 296 293 289 290 299 306 308 307 307 309 310 308 307 308 307 305 301 294 293 290 290 285 283 281 278 276 275 272 266 260 257 254 249 244 239
319 313 322 315 308 300 321 310 305 304 299 296 297 298 299 300 301 299 295 295 299 300 298 295 292 292 288 284 281 281 279 276 273 272 271 266 265 260 254 247 248 244 241
266 278 299 336 7 355 337 324 319 313 306 302 303 304 303 300 299 296 293 291 292 289 290 290 290 287 285 286 284 282 278 274 270 267 265 264 263 262 253 246 243 245 243
292 295 313 337 7 4 335 324 320 314 308 307 308 305 303 301 300 297 295 294 292 288 286 285 283 283 283 284 284 283 278 272 267 266 263 258 257 260 252 243 241 240 243
289 39 13 15 7 340 326 326 316 310 311 306 304 304 304 302 299 297 294 293 291 288 285 283 282 281 279 281 283 283 279 271 269 264 262 257 253 250 249 243 239 238 239
58 12 345 346 332 328 328 322 315 314 311 311 308 306 305 303 299 295 294 292 290 287 285 285 284 282 282 280 283 283 280 276 269 263 259 257 255 253 253 250 246 243 240
40 351 332 324 325 327 328 321 318 318 317 314 311 308 305 302 299 296 295 294 292 287 287 287 287 289 290 289 288 289 286 282 278 273 262 258 259 261 260 256 251 242 234
42 336 325 324 318 323 322 318 318 317 315 311 309 309 307 304 301 296 293 292 291 288 287 287 284 283 282 282 283 284 285 287 291 294 265 261 259 260 258 255 249 240 226
335 320 321 316 311 318 318 321 321 321 314 310 308 308 307 306 302 296 293 291 287 286 286 284 284 286 286 285 285 282 278 272 278 285 283 263 248 247 253 250 246 228 221
306 314 314 314 314 317 316 319 324 324 316 307 309 309 306 302 300 299 297 294 294 296 294 293 292 292 289 292 291 288 284 279 274 271 269 270 268 243 242 249 241 216 215